Back to catalog

STARLINK-32938

AliveCommunicationsVLEO
NORAD 63201·PAYLOAD·🇺🇸 United States

Launched Mar 13, 2025 from Cape Canaveral Space Force Station

Loading…

Next Passes (next 24 hours)

TLE

FreshSource: CelesTrak SupGP

Epoch: Sep 15, 2026, 02:47 UTC

1 63201C 25048U   26258.11645833  .00012028  00000+0  43609-3 0  2580
2 63201  43.0015  95.5661 0001497 271.1944  35.9351 15.27540421    16

Track STARLINK-32938 in real time with AllMySat

Download on the App Store